• Processing (Info)

  • MPEC 2008-B11 : 2008 AP33

    The following Minor Planet Electronic Circular may be linked-to from your own Web pages, but must not otherwise be redistributed electronically.

    A form allowing access to any MPEC is at the bottom of this page.


    Read MPEC 2008-B10 Read MPEC 2008-B12


    M.P.E.C. 2008-B11                                Issued 2008 Jan. 16, 20:35 UT
    
         The Minor Planet Electronic Circulars contain information on unusual
             minor planets and routine data on comets.  They are published
       on behalf of Commission 20 of the International Astronomical Union by the
              Minor Planet Center, Smithsonian Astrophysical Observatory,
                              Cambridge, MA 02138, U.S.A.
    
                 Prepared using the Tamkin Foundation Computer Network
    
                                  MPC@CFA.HARVARD.EDU
              URL http://www.cfa.harvard.edu/iau/mpc.html  ISSN 1523-6714
    
                                       2008 AP33
    
    Observations:
         K08A33P* C2008 01 15.21849 07 41 12.81 +06 37 20.7          19.6   EB011704
         K08A33P  C2008 01 15.23142 07 41 10.77 +06 39 33.6          19.2   EB011704
         K08A33P  C2008 01 15.24450 07 41 08.62 +06 41 46.5          19.7   EB011704
         K08A33P  C2008 01 15.25748 07 41 06.69 +06 44 00.2          19.3   EB011704
         K08A33P EC2008 01 15.94802 07 39 44.41 +08 34 30.8                 EB011J95
         K08A33P  C2008 01 15.96480 07 39 42.17 +08 37 03.5                 EB011J95
         K08A33P EC2008 01 15.98319 07 39 39.64 +08 39 49.9          19.8 R EB011J95
         K08A33P  C2008 01 16.10415507 39 29.44 +08 58 07.8          20.1 V EB011H55
         K08A33P  C2008 01 16.10608307 39 29.16 +08 58 25.7          20.0 V EB011H55
         K08A33P  C2008 01 16.10876107 39 28.80 +08 58 49.1          19.4 V EB011H55
    
    Observer details:
    704 Lincoln Laboratory ETS, New Mexico.  Observers M. Bezpalko, D. Torres,
        R. Kracke, G. Spitz, J. Kistler.  Measurers J. Stuart, S. Scruggs.  1.0-m
        f/2.15 reflector + CCD.
    H55 Astronomical Research Observatory, Charleston.  Observer R. Holmes.
        0.61-m f/4.0 astrograph + CCD.
    J95 Great Shefford.  Observer P. Birtwhistle.  0.40-m f/6.0 Schmidt-Cassegrain
        + CCD.
    
    Orbital elements:
    2008 AP33                                                Earth MOID = 0.0270 AU
    Epoch 2007 Oct. 27.0 TT = JDT 2454400.5                 MPC
    M 349.01369              (2000.0)            P               Q
    n   0.62117850     Peri.  257.39141     +0.93101425     -0.34365418
    a   1.3603744      Node   122.58821     +0.36497023     +0.87377790
    e   0.4934019      Incl.    8.39010     +0.00303396     +0.34411333
    P   1.59           H   23.8           G   0.15           U   9
    Residuals in seconds of arc
    080115 704  0.2+  0.2+    080115 J95  0.4-  0.4+    080116 H55  0.0   0.6+
    080115 704  0.1+  0.3+    080115 J95  0.3+  0.1+    080116 H55  0.2-  0.1+
    080115 704  1.1-  0.8-    080115 J95  0.0   0.6-
    080115 704  0.9+  0.3+    080116 H55  0.4+  0.1-
    
    Ephemeris:
    2008 AP33                a,e,i = 1.36, 0.49, 8                   q = 0.6892
    Date    TT    R. A. (2000) Decl.     Delta      r     Elong.  Phase     V
    2008 01 15    07 41.64   +06 00.0    0.0870   1.068   164.7    14.1    19.4
    2008 01 16    07 39.62   +08 43.3    0.0945   1.076   167.4    11.5    19.5
    2008 01 17    07 37.89   +11 02.7    0.102    1.084   169.5     9.5    19.7
    2008 01 18    07 36.40   +13 02.6    0.110    1.093   170.9     8.2    19.8
    2008 01 19    07 35.11   +14 46.5    0.118    1.101   171.6     7.5    19.9
    2008 01 20    07 33.99   +16 17.1    0.127    1.109   171.5     7.5    20.1
    2008 01 21    07 33.02   +17 36.6    0.135    1.118   171.0     7.9    20.3
    2008 01 22    07 32.18   +18 46.8    0.144    1.126   170.1     8.6    20.4
    2008 01 23    07 31.44   +19 49.2    0.152    1.134   169.0     9.5    20.6
    2008 01 24    07 30.81   +20 44.7    0.161    1.142   167.9    10.4    20.8
    2008 01 25    07 30.27   +21 34.4    0.170    1.150   166.6    11.4    21.0
    2008 01 26    07 29.82   +22 19.1    0.179    1.159   165.4    12.4    21.1
    2008 01 27    07 29.44   +22 59.4    0.188    1.167   164.2    13.3    21.3
    2008 01 28    07 29.13   +23 35.7    0.197    1.175   162.9    14.2    21.4
    2008 01 29    07 28.89   +24 08.7    0.207    1.183   161.7    15.1    21.6
    2008 01 30    07 28.71   +24 38.7    0.216    1.191   160.6    16.0    21.7
    2008 01 31    07 28.59   +25 05.9    0.226    1.199   159.4    16.8    21.9
    2008 02 01    07 28.53   +25 30.7    0.235    1.207   158.3    17.6    22.0
    2008 02 02    07 28.52   +25 53.4    0.245    1.215   157.1    18.4    22.1
    2008 02 03    07 28.57   +26 14.0    0.255    1.223   156.0    19.1    22.2
    2008 02 04    07 28.66   +26 32.9    0.265    1.231   155.0    19.8    22.4
    
    Timothy B. Spahr             (C) Copyright 2008 MPC           M.P.E.C. 2008-B11
    

    Read MPEC 2008-B10 Read MPEC 2008-B12


    MPEC number:

    Enter an MPEC number in one of the following forms:

    • 1997-B01 (the full form)
    • J97B01 (the packed version of the full form)
    • B01 (the abbreviated form)